Time,TemperatureF,DewpointF,PressureIn,WindDirection,WindDirectionDegrees,WindSpeedMPH,WindSpeedGustMPH,Humidity,HourlyPrecipIn,Conditions,Clouds,dailyrainin,SolarRadiationWatts/m^2,SoftwareType,DateUTC
2013-06-05 00:00:00,70.0,68.2,29.96,SSE,154,0.0,0.0,94,0.00,,OVC018,0.00,0.00,VWS V14.00,2013-06-05 04:00:00,
2013-06-05 01:00:00,69.6,68.1,29.96,ENE,65,0.0,0.0,95,0.00,,OVC018,0.00,0.00,VWS V14.00,2013-06-05 05:00:00,
2013-06-05 02:00:00,69.0,67.5,29.95,ESE,108,0.0,0.0,95,0.00,,OVC018,0.00,0.00,VWS V14.00,2013-06-05 06:00:00,
2013-06-05 03:00:00,69.3,67.8,29.94,North,357,0.0,0.0,95,0.00,,OVC018,0.00,0.00,VWS V14.00,2013-06-05 07:00:00,
2013-06-05 04:00:00,69.7,68.2,29.95,NE,37,0.0,2.0,95,0.00,,OVC018,0.00,0.00,VWS V14.00,2013-06-05 08:00:00,
2013-06-05 05:00:00,70.1,68.9,29.96,NNE,30,0.0,0.0,96,0.00,,OVC018,0.00,0.00,VWS V14.00,2013-06-05 09:00:00,
2013-06-05 06:00:00,70.4,69.2,29.98,West,265,0.0,0.0,96,0.00,,OVC018,0.00,7.00,VWS V14.00,2013-06-05 10:00:00,
2013-06-05 07:00:00,71.0,70.1,29.98,SW,234,0.0,0.0,97,0.00,,OVC018,0.00,105.00,VWS V14.00,2013-06-05 11:00:00,
2013-06-05 08:00:00,72.7,71.5,29.99,East,89,0.0,0.0,96,0.00,,OVC018,0.00,188.00,VWS V14.00,2013-06-05 12:00:00,
2013-06-05 09:00:00,74.2,72.4,30.00,East,99,0.0,0.0,94,0.00,,OVC018,0.00,127.00,VWS V14.00,2013-06-05 13:00:00,
2013-06-05 10:00:00,75.9,73.1,29.98,WSW,257,0.0,0.0,91,0.00,,OVC018,0.00,81.00,VWS V14.00,2013-06-05 14:00:00,
2013-06-05 11:00:00,79.0,74.5,29.98,North,1,0.0,5.0,86,0.00,,OVC018,0.00,373.00,VWS V14.00,2013-06-05 15:00:00,
2013-06-05 12:00:00,78.3,74.1,29.98,North,1,0.0,1.0,87,0.00,,OVC018,0.00,415.00,VWS V14.00,2013-06-05 16:00:00,
2013-06-05 13:00:00,81.8,73.5,29.94,NNE,25,0.0,0.0,76,0.00,,OVC018,0.00,330.00,VWS V14.00,2013-06-05 17:00:00,
2013-06-05 14:00:00,79.4,73.1,29.92,ESE,120,3.0,5.0,81,0.00,,OVC018,0.00,90.00,VWS V14.00,2013-06-05 18:00:00,
2013-06-05 15:00:00,73.3,71.2,29.93,ESE,108,0.0,1.0,93,0.20,,OVC018,0.20,149.00,VWS V14.00,2013-06-05 19:00:00,
2013-06-05 16:00:00,72.7,70.9,29.93,East,84,3.0,5.0,94,0.42,,OVC018,0.42,79.00,VWS V14.00,2013-06-05 20:00:00,
2013-06-05 17:00:00,73.7,71.9,29.91,WNW,300,0.0,0.0,94,0.35,,OVC018,0.55,102.00,VWS V14.00,2013-06-05 21:00:00,
2013-06-05 18:00:00,74.0,71.2,29.89,ESE,108,2.0,5.0,91,0.23,,OVC018,0.65,123.00,VWS V14.00,2013-06-05 22:00:00,
2013-06-05 19:00:00,73.1,69.7,29.89,ENE,67,0.0,0.0,89,0.18,,OVC018,0.73,39.00,VWS V14.00,2013-06-05 23:00:00,
2013-06-05 20:00:00,71.4,69.3,29.91,NE,47,0.0,0.0,93,0.13,,OVC018,0.78,0.00,VWS V14.00,2013-06-06 00:00:00,
2013-06-05 21:00:00,70.7,69.2,29.91,NE,46,0.0,0.0,95,0.05,,OVC018,0.78,0.00,VWS V14.00,2013-06-06 01:00:00,
2013-06-05 22:00:00,71.0,69.8,29.92,SSE,147,0.0,0.0,96,0.01,,OVC018,0.79,0.00,VWS V14.00,2013-06-06 02:00:00,
2013-06-05 23:00:00,70.8,69.6,29.90,NE,51,0.0,0.0,96,0.05,,OVC018,0.83,0.00,VWS V14.00,2013-06-06 03:00:00,